スペースウォッチ彗星

C/2006 GZ2 ( Spacewatch )

English version
Home page
Updated on May 8, 2006

---------------------------------------------------------------------

・ プロフィール

発見日 2006年4月7日
発見光度 20.1等
発見者 Spacewatch survey

・ 軌道要素

T 2006 Aug. 21.846 TT                                   MPC
q   3.30295              (2000.0)            P               Q
                   Peri.  191.456       -0.960914       +0.276382
                   Node   355.319       +0.266975       +0.940411
e   1.0            Incl.  168.683       +0.073265       +0.198091
From 57 observations 2006 Apr. 7-26.

・ 光度変化

        m1 = 12.0 + 5 logΔ + 10.0 log r

---------------------------------------------------------------------

軌道要素はM.P.E.C. 2006-J09に掲載されたものです。
光度グラフはComet for Windowsで作成したものです。

---------------------------------------------------------------------

Copyright(C) Seiichi Yoshida (comet@aerith.net). All rights reserved.